Regional Weather Roundup
Issued by NWS

Home | Current Version | Previous Version | Text Only | Print | Product List | Glossary Off
Versions: 1 2 3 4 5 6 7 8 9 10 11 12 13 14 15 16 17 18 19 20 21 22 23 24 25 26 27 28 29 30 31 32 33 34 35 36 37 38 39 40 41 42 43 44 45 46 47 48 49 50

000
ASUS43 KMKX 280321
RWRWI

WISCONSIN REGIONAL WEATHER ROUNDUP
NATIONAL WEATHER SERVICE MILWAUKEE/SULLIVAN WI
1000 PM CDT FRI MAY 27 2016

NOTE: "FAIR" INDICATES FEW OR NO CLOUDS BELOW 12,000 FEET WITH NO
SIGNIFICANT WEATHER AND/OR OBSTRUCTIONS TO VISIBILITY.

WIZ001-002-006>008-014>016-023>028-280400-
NORTHWEST WISCONSIN

CITY           SKY/WX    TMP DP  RH WIND       PRES   REMARKS
SUPERIOR ARPT  DRIZZLE   46  46 100 E12G18    29.83S
ASHLAND        LGT RAIN  47  46  97 NE12      29.80F FOG
HAYWARD        CLOUDY    56  54  93 NE10      29.77F
SIREN          MOCLDY    58  55  92 NE7       29.77S
CUMBERLAND     CLOUDY    59  55  88 N7        29.76R
RICE LAKE      CLOUDY    61  60  96 N7        29.76S
CHETEK         CLOUDY    62  62 100 N3        29.75S
LADYSMITH      CLOUDY    67  65  94 SE5       29.78S
EAU CLAIRE     CLOUDY    65  64  97 S5        29.73S
MENOMONIE      CLOUDY    63  63  99 CALM      29.75R
NEW RICHMOND   CLOUDY    64  63  96 E3        29.75S
OSCEOLA        CLOUDY    64  64 100 CALM      29.78R
$$

WIZ003>005-009-010-017-018-280400-
NORTH CENTRAL WISCONSIN

CITY           SKY/WX    TMP DP  RH WIND       PRES   REMARKS
MANITOWISH WTR NOT AVBL
ARBOR VITAE    CLOUDY    66  62  87 SE10      29.81S
WOODRUFF       CLOUDY    66  62  87 SE10      29.81S
RHINELANDER    LGT RAIN  65  62  90 E10       29.82F
EAGLE RIVER      N/A     65  63  94 SE6       29.83S
LAND O LAKES   CLOUDY    65  63  92 SE9       29.84F
PHILLIPS       CLOUDY    65  63  91 SE8       29.78R
TOMAHAWK       CLOUDY    64  62  94 SE3       29.81R
MEDFORD        CLOUDY    65  65 100 SE7       29.78R
MERRILL        CLOUDY    65  65 100 SE6       29.80R
$$

WIZ029-030-035-036-043>047-280400-
CENTRAL WISCONSIN

CITY           SKY/WX    TMP DP  RH WIND       PRES   REMARKS
WAUSAU         CLOUDY    67  64  90 E6        29.78R
MOSINEE        CLOUDY    64  64 100 E6        29.80R
MARSHFIELD     CLOUDY    68  65  90 SE9       29.78R
STEVENS POINT  MOCLDY    65  64  99 SE8       29.80R
WAUPACA        CLOUDY    69  68  99 SE6       29.80R
WAUTOMA        LGT RAIN  68  66  94 SE7       29.80R
WISC RAPIDS    CLOUDY    67  64  90 SE7       29.80R
CAMP DOUGLAS   MOCLDY    68 N/A N/A E5        29.77R
$$

WIZ011>013-019>022-031-037>040-048>050-280400-
NORTHEAST WISCONSIN

CITY           SKY/WX    TMP DP  RH WIND       PRES   REMARKS
ANTIGO         DRIZZLE   64  64  99 E16       29.82F
SHAWANO        RAIN      67  65  93 SE6       29.82S
OCONTO         CLOUDY   N/A N/A N/A E6        29.84S
STURGEON BAY   NOT AVBL
GREEN BAY      CLOUDY    66  64  93 SE9       29.82F FOG
MANITOWOC      LGT RAIN  59  57  94 SE7       29.86S FOG
APPLETON       CLOUDY    66  66 100 SE7       29.80S
CLINTONVILLE   CLOUDY    66  64  94 SE7       29.81S FOG
OSHKOSH        CLOUDY    68  66  93 SE8       29.80S
$$

WIZ032>034-041-042-053>061-280400-
SOUTHWEST WISCONSIN

CITY           SKY/WX    TMP DP  RH WIND       PRES   REMARKS
LA CROSSE      CLOUDY    69  67  93 SE6       29.74R FOG
SPARTA         PTCLDY    67  67  99 SE3       29.77R
VIROQUA        CLOUDY    66  65  97 S6        29.78R
BOSCOBEL       PTCLDY    66  64  93 CALM      29.76R
PRAIRIE DU CHI CLOUDY    67  64  91 CALM      29.76R
PLATTEVILLE    MOCLDY    71  68  92 SE8       29.78S
$$

WIZ056-057-062-063-064-067-068-280400-
SOUTH CENTRAL WISCONSIN

CITY           SKY/WX    TMP DP  RH WIND       PRES   REMARKS
REEDSBURG      CLEAR     69  67  96 S5        29.77R
BARABOO/DELLS  PTCLDY    69  65  86 S7        29.79R
LONE ROCK      MOCLDY    72  66  81 SE5       29.77R
MINERAL POINT  PTCLDY    70  66  88 SE6       29.80R
MADISON        PTCLDY    71  66  84 S5        29.79R
MIDDLETON      PTCLDY    71  67  86 S6        29.80R
WATERTOWN      PTCLDY    69  69 100 SE6       29.81R
MONROE         CLOUDY    70  66  88 S8        29.80R
JANESVILLE     NOT AVBL
$$

WIZ051-052-058>065-066-070>072-280400-
SOUTHEAST WISCONSIN

CITY           SKY/WX    TMP DP  RH WIND       PRES   REMARKS
MILWAUKEE      CLOUDY    68  65  90 S8        29.85R
WAUKESHA       CLEAR     66  64  94 SE5       29.85R
MILWAUKEE/TIMM CLOUDY    68  63  83 SE6       29.85R
RACINE         CLOUDY    67  62  84 S15G23    29.87R
BURLINGTON     CLOUDY    68  67  96 SE7       29.84R FOG
KENOSHA        CLOUDY    70  65  84 S15       29.85R
FOND DU LAC    CLOUDY    68  66  93 SE9       29.81S
SHEBOYGAN      CLOUDY    63  61  93 SE5       29.84S FOG
WEST BEND      CLOUDY    64  64 100 SE3       29.83S
JUNEAU         PTCLDY    68  66  94 SE9       29.82S
$$

LSZ147-162-280400-
LAKE SUPERIOR

STATION/POSITION TIME  TEMP    WIND        PRES    WAVE
                       AIR SEA DIR/SP/G            HT/PER
                 (UTC) (F)     (DEG/KT/KT) (MB)    (FT/S)
W MID LAKE BUOY  0250   41 38   50/ 16/ 19 1011.1R   2/ 3
DEVILS ISLAND    0300   46      60/ 20/ 22 1010.3F
SAXON HARBOR     0200   46     320/  2/  3 1009.1F
$$

LMZ867-665-643>646-280400-
LAKE MICHIGAN

STATION/POSITION TIME  TEMP    WIND        PRES    WAVE
                       AIR SEA DIR/SP/G            HT/PER
                 (UTC) (F)     (DEG/KT/KT) (MB)    (FT/S)
CHAMBERS ISLAND  0240   60     100/  4/  7 1011.9R
N MID LAKE BUOY  0250   52 47  130/  6/  8 1011.9F   0
NORTHPORT PIER   0200   54     140/  9/ 11 1011.9S
SISTER BAY       0205   58     140/  8/ 10   N/A
ALGOMA LAKESHORE 0202           80/  4/  5   N/A
KEWAUNEE LAKESHO 0200           40/  5/  8 1010.3F
SHEBOYGAN LAKESH 0300   56     160/ 10/ 10 1011.0R
PORT WASHINGTON  0240   58     120/  2/  3 1011.5R
S MID LAKE BUOY  0250   58 50  160/ 16/ 17 1011.6R   1/ 3
KENOSHA   LAKESH 0300   59     180/ 13/ 18 1011.2R
$$

TC  - TEMPERATURE IN CELSIUS
VSB - VISIBILITY IN STATUTE MILES
WCI - WIND CHILL INDEX
HX  - HEAT INDEX




USA.gov is the U.S. government's official web portal to all federal, state and local government web resources and services.